Weather History for KIJD - October, 2013

Change the Weather History Date:

Sunday, October 6, 2013

  Actual Average (KBDL) Record (KBDL)
Temperature  
Mean Temperature 60 °F 56 °F  
Max Temperature 63 °F 67 °F 89 °F (2007)
Min Temperature 57 °F 44 °F 24 °F (1984)
Degree Days  
Heating Degree Days 5 10  
Month to date heating degree days 54  
Since 1 July heating degree days 176  
Cooling Degree Days 0 0  
Month to date cooling degree days 5  
Year to date cooling degree days 754  
Growing Degree Days 10 (Base 50)    
Moisture  
Dew Point 57 °F    
Average Humidity 93    
Maximum Humidity 100    
Minimum Humidity 82    
Precipitation  
Precipitation 0.47 in 0.16 in 1.33 in (1955)
Month to date precipitation 0.91  
Year to date precipitation 35.06  
Snow  
Snow 0.00 in 0.00 in 0.00 in (2013)
Month to date snowfall 0.0  
Since 1 July snowfall 0.0  
Since 1 September snowfall 0.0  
Snow Depth -    
Sea Level Pressure  
Sea Level Pressure 30.15 in    
Wind  
Wind Speed 2 mph (ENE)    
Max Wind Speed 8 mph    
Max Gust Speed -    
Visibility 6 miles    
Events Rain    
T = Trace of Precipitation, MM = Missing Value Source: NWS Daily Summary

Daily Weather History Graph

Daily Weather History Graph

Search for Another Location

Airport or City:

Trip Planner

Search our weather history database for the weather conditions in past years. The results will help you decide how hot, cold, wet, or windy it might be!

Date:

Astronomy

Oct. 06, 2013 Rise Set
Actual Time 6:51 AM EDT 6:21 PM EDT
Civil Twilight 6:23 AM EDT 6:49 PM EDT
Nautical Twilight 5:51 AM EDT 7:21 PM EDT
Astronomical Twilight 5:18 AM EDT 7:53 PM EDT
Moon 8:34 AM EDT (10/6) 7:16 PM EDT (10/6)
Length of Visible Light 12h 25m
Length of Day
11h 30m
Waxing Crescent, 3% of the Moon is Illuminated
Oct 6
Waxing Crescent
Oct 11
First Quarter
Oct 18
Full
Oct 26
Last Quarter
Nov 3
New

Hourly Weather History & Observations

Time (EDT) Temp. Dew Point Humidity Pressure Visibility Wind Dir Wind Speed Gust Speed Precip Events Conditions
12:06 AM 62.6 °F 60.8 °F 94% 30.12 in 10.0 mi Calm Calm - N/A   Overcast
12:19 AM 62.6 °F 60.8 °F 94% 30.12 in 10.0 mi Calm Calm - N/A   Overcast
12:52 AM 63.0 °F 60.1 °F 90% 30.12 in 10.0 mi Calm Calm - N/A   Overcast
1:17 AM 62.6 °F 60.8 °F 94% 30.13 in 10.0 mi Calm Calm - N/A   Overcast
1:24 AM 62.6 °F 60.8 °F 94% 30.13 in 10.0 mi Calm Calm - N/A   Overcast
1:52 AM 62.1 °F 60.1 °F 93% 30.12 in 10.0 mi Calm Calm - N/A   Overcast
2:24 AM 62.6 °F 60.8 °F 94% 30.12 in 10.0 mi Calm Calm - N/A   Overcast
2:52 AM 62.1 °F 59.0 °F 90% 30.11 in 9.0 mi Calm Calm - N/A   Overcast
3:35 AM 62.6 °F 60.8 °F 94% 30.11 in 7.0 mi Calm Calm - N/A   Overcast
3:52 AM 62.1 °F 60.1 °F 93% 30.11 in 5.0 mi Calm Calm - N/A   Overcast
4:09 AM 60.8 °F 60.8 °F 100% 30.11 in 2.0 mi Calm Calm - N/A   Overcast
4:17 AM 60.8 °F 60.8 °F 100% 30.12 in 1.8 mi Calm Calm - N/A   Overcast
4:32 AM 60.8 °F 60.8 °F 100% 30.11 in 2.0 mi Calm Calm - N/A   Overcast
4:44 AM 60.8 °F 60.8 °F 100% 30.12 in 1.8 mi East 3.5 mph - 0.00 in Rain Light Rain
4:52 AM 61.0 °F 60.1 °F 97% 30.11 in 1.8 mi East 3.5 mph - 0.00 in   Overcast
5:02 AM 60.8 °F 60.8 °F 100% 30.12 in 2.0 mi Calm Calm - 0.00 in Rain Light Rain
5:18 AM 60.8 °F 60.8 °F 100% 30.12 in 5.0 mi East 3.5 mph - 0.01 in Rain Light Rain
5:52 AM 61.0 °F 59.0 °F 93% 30.13 in 8.0 mi East 3.5 mph - 0.02 in Rain Light Rain
6:22 AM 60.8 °F 59.0 °F 94% 30.14 in 7.0 mi ENE 4.6 mph - 0.02 in Rain Light Rain
6:52 AM 60.1 °F 57.0 °F 90% 30.14 in 9.0 mi ENE 6.9 mph - 0.02 in Rain Light Rain
7:12 AM 59.0 °F 55.4 °F 88% 30.15 in 6.0 mi NE 6.9 mph - 0.02 in Rain Light Rain
7:22 AM 57.2 °F 55.4 °F 94% 30.16 in 6.0 mi NE 8.1 mph - 0.04 in Rain Rain
7:37 AM 57.2 °F 53.6 °F 88% 30.17 in 1.8 mi NNE 3.5 mph - 0.12 in Rain Heavy Rain
7:49 AM 57.2 °F 55.4 °F 94% 30.17 in 3.0 mi NE 4.6 mph - 0.15 in Rain Light Rain
7:52 AM 57.0 °F 55.0 °F 93% 30.17 in 5.0 mi NE 5.8 mph - 0.15 in Rain Light Rain
8:32 AM 57.2 °F 55.4 °F 94% 30.18 in 1.8 mi Calm Calm - 0.04 in Rain Heavy Rain
8:52 AM 57.9 °F 55.9 °F 93% 30.19 in 1.2 mi Calm Calm - 0.16 in Rain Heavy Rain
9:04 AM 57.2 °F 55.4 °F 94% 30.19 in 2.5 mi ENE 5.8 mph - 0.03 in Rain Rain
9:09 AM 59.0 °F 55.4 °F 88% 30.19 in 3.0 mi NE 6.9 mph - 0.03 in Rain Light Rain
9:22 AM 57.2 °F 55.4 °F 94% 30.18 in 4.0 mi ENE 5.8 mph - 0.04 in Rain Light Rain
9:32 AM 57.2 °F 55.4 °F 94% 30.19 in 9.0 mi ENE 6.9 mph - 0.04 in Rain Light Rain
9:43 AM 59.0 °F 55.4 °F 88% 30.19 in 10.0 mi East 5.8 mph - 0.04 in   Overcast
9:52 AM 59.0 °F 55.9 °F 90% 30.18 in 10.0 mi ENE 6.9 mph - 0.04 in Rain Light Rain
10:52 AM 59.0 °F 55.9 °F 90% 30.19 in 8.0 mi ENE 4.6 mph - 0.02 in Rain Light Rain
11:35 AM 59.0 °F 55.4 °F 88% 30.19 in 6.0 mi East 5.8 mph - 0.02 in Rain Light Rain
11:52 AM 59.0 °F 55.9 °F 90% 30.19 in 10.0 mi ENE 5.8 mph - 0.02 in Rain Light Rain
12:38 PM 59.0 °F 55.4 °F 88% 30.18 in 10.0 mi East 3.5 mph - 0.01 in Rain Light Rain
12:52 PM 59.0 °F 55.9 °F 90% 30.18 in 10.0 mi Calm Calm - 0.01 in Rain Light Rain
1:52 PM 59.0 °F 55.9 °F 90% 30.17 in 10.0 mi NE 5.8 mph - 0.01 in   Overcast
2:07 PM 59.0 °F 55.4 °F 88% 30.16 in 10.0 mi ENE 4.6 mph - 0.00 in Rain Light Rain
2:52 PM 59.0 °F 57.0 °F 93% 30.16 in 10.0 mi NE 4.6 mph - 0.00 in   Overcast
3:43 PM 60.8 °F 57.2 °F 88% 30.15 in 10.0 mi NE 8.1 mph - N/A   Overcast
3:52 PM 60.1 °F 57.0 °F 90% 30.15 in 10.0 mi NE 5.8 mph - N/A   Overcast
4:20 PM 60.8 °F 57.2 °F 88% 30.15 in 10.0 mi ENE 6.9 mph - N/A   Overcast
4:52 PM 60.1 °F 55.9 °F 86% 30.14 in 10.0 mi ENE 4.6 mph - N/A   Overcast
5:10 PM 60.8 °F 55.4 °F 82% 30.15 in 10.0 mi East 3.5 mph - N/A   Overcast
5:27 PM 59.0 °F 57.2 °F 94% 30.15 in 1.8 mi East 3.5 mph - N/A   Overcast
5:52 PM 59.0 °F 57.0 °F 93% 30.15 in 1.5 mi NE 3.5 mph - 0.00 in   Overcast
6:30 PM 59.0 °F 57.2 °F 94% 30.15 in 2.5 mi Calm Calm - N/A   Overcast
6:39 PM 59.0 °F 57.2 °F 94% 30.16 in 3.0 mi Calm Calm - N/A   Overcast
6:52 PM 59.0 °F 57.0 °F 93% 30.15 in 3.0 mi Calm Calm - N/A   Overcast
7:47 PM 59.0 °F 57.2 °F 94% 30.15 in 2.5 mi Calm Calm - 0.01 in   Overcast
7:52 PM 57.9 °F 57.0 °F 97% 30.16 in 2.5 mi Calm Calm - 0.01 in   Overcast
8:14 PM 59.0 °F 57.2 °F 94% 30.15 in 3.0 mi East 3.5 mph - N/A   Overcast
8:52 PM 57.9 °F 57.0 °F 97% 30.16 in 3.0 mi Calm Calm - N/A   Overcast
9:00 PM 57.2 °F 57.2 °F 100% 30.15 in 2.5 mi Calm Calm - N/A   Overcast
9:16 PM 57.2 °F 55.4 °F 94% 30.15 in 3.0 mi Calm Calm - N/A   Overcast
9:52 PM 57.9 °F 55.9 °F 93% 30.14 in 6.0 mi Calm Calm - 0.01 in   Overcast
10:52 PM 57.9 °F 55.9 °F 93% 30.13 in 8.0 mi Calm Calm - N/A   Overcast
11:52 PM 59.0 °F 57.0 °F 93% 30.11 in 10.0 mi Calm Calm - N/A   Overcast